{"data":{"norad_id":48228,"epoch":"2026-05-25T02:50:34.994112Z","epoch_age_seconds":75497,"freshness":"FRESH","line1":"1 48228U 21031U   26145.11846058 -.00000056  00000+0 -18586-3 0  9995","line2":"2 48228  87.8943 294.3062 0002057  99.0823 261.0540 13.14501432245403","mean_motion":13.14501432,"eccentricity":0.0002057,"inclination_deg":87.8943,"raan_deg":294.3062,"arg_perigee_deg":99.0823,"mean_anomaly_deg":261.054,"bstar":-0.00018586,"rev_number":24540,"period_min":109.54723706988,"perigee_km":1204.2356014263,"apogee_km":1207.3556313047,"semimajor_km":7583.9326163655,"source":"CELESTRAK","updated_at":"2026-05-25T13:38:22.437049Z"}}